Baraboo, WI

11:55 AM CDT on May 21, 2018 (GMT -0500)
Baraboo Wisconsin Dells

Weather History for KDLL - October, 2013

Change the Weather History Date:

Friday, October 4, 2013

  Actual Average Record
Temperature  
Mean Temperature 58 °F -  
Max Temperature 60 °F 64 °F 82 °F (1967)
Min Temperature 56 °F 38 °F 18 °F (1989)
Degree Days  
Heating Degree Days 7    
Growing Degree Days 8 (Base 50)    
Moisture  
Dew Point 57 °F    
Average Humidity 96    
Maximum Humidity 96    
Minimum Humidity 94    
Precipitation  
Precipitation 0.10 in - - ()
Sea Level Pressure  
Sea Level Pressure 29.95 in    
Wind  
Wind Speed 6 mph (ENE)    
Max Wind Speed 14 mph    
Max Gust Speed 21 mph    
Visibility 1 miles    
Events Fog , Rain , Thunderstorm    
Averages and records for this station are not official NWS values.
T = Trace of Precipitation, MM = Missing Value Source: NWS Daily Summary

Daily Weather History Graph

Daily Weather History Graph

Search for Another Location

Airport or City:

Astronomy

Oct. 04, 2013 Rise Set
Actual Time 7:00 AM CDT 6:34 PM CDT
Civil Twilight 6:31 AM CDT 7:02 PM CDT
Nautical Twilight 5:58 AM CDT 7:35 PM CDT
Astronomical Twilight 5:25 AM CDT 8:09 PM CDT
Moon 6:36 AM CDT (10/4) 6:15 PM CDT (10/4)
Length of Visible Light 12h 31m
Length of Day
11h 33m
Waning Crescent, 0% of the Moon is Illuminated
Oct 4
Waning Crescent
Oct 4
New
Oct 11
First Quarter
Oct 18
Full
Oct 26
Last Quarter

Hourly Weather History & Observations

Time (CDT) Temp. Dew Point Humidity Pressure Visibility Wind Dir Wind Speed Gust Speed Precip Events Conditions
12:15 AM 59.9 °F 58.3 °F 94% 29.90 in 1.0 mi ENE 6.9 mph - N/A   Overcast
12:35 AM 59.9 °F 58.3 °F 94% 29.89 in 0.5 mi ENE 3.5 mph - N/A Fog Fog
12:55 AM 59.9 °F 58.1 °F 94% 29.88 in 0.2 mi ENE 5.8 mph - N/A Fog Fog
1:15 AM 59.5 °F 58.1 °F 95% 29.88 in 0.2 mi East 3.5 mph - N/A Fog Fog
1:35 AM 59.9 °F 58.3 °F 94% 29.89 in 0.2 mi Calm Calm - N/A Fog Fog
1:55 AM 59.4 °F 58.1 °F 96% 29.89 in 0.2 mi NNE 3.5 mph - N/A Fog Fog
2:15 AM 59.0 °F 57.6 °F 95% 29.89 in 0.2 mi NE 3.5 mph - N/A Fog Fog
2:35 AM 58.5 °F 57.2 °F 96% 29.90 in 0.2 mi ENE 4.6 mph - N/A Fog Fog
2:55 AM 58.3 °F 56.8 °F 95% 29.90 in 0.2 mi ENE 3.5 mph - N/A Fog Fog
3:15 AM 58.1 °F 56.8 °F 96% 29.90 in 0.2 mi East 3.5 mph - N/A Rain Rain
3:35 AM 58.1 °F 56.8 °F 96% 29.91 in 0.2 mi NE 3.5 mph - N/A   Drizzle
3:55 AM 58.1 °F 56.7 °F 95% 29.92 in 0.2 mi ENE 4.6 mph - N/A   Drizzle
4:15 AM 58.1 °F 56.7 °F 95% 29.92 in 0.2 mi NE 3.5 mph - N/A   Drizzle
4:35 AM 57.9 °F 56.7 °F 96% 29.92 in 0.2 mi North 4.6 mph - N/A   Light Drizzle
4:55 AM 57.4 °F 56.3 °F 96% 29.94 in 0.2 mi NE 4.6 mph - N/A   Light Drizzle
5:15 AM 57.4 °F 56.1 °F 96% 29.93 in 0.5 mi ENE 5.8 mph - N/A Fog Fog
5:35 AM 57.4 °F 56.1 °F 96% 29.92 in 0.2 mi NE 4.6 mph - N/A Fog Fog
5:55 AM 57.4 °F 56.3 °F 96% 29.93 in 0.2 mi East 4.6 mph - N/A Fog Fog
6:15 AM 57.4 °F 56.3 °F 96% 29.94 in 0.2 mi East 4.6 mph - N/A Fog Fog
6:35 AM 57.4 °F 56.3 °F 96% 29.95 in 0.2 mi NE 3.5 mph - N/A Fog Fog
6:55 AM 57.4 °F 56.3 °F 96% 29.97 in 0.2 mi Calm Calm - N/A Fog Fog
7:35 AM 57.6 °F 56.3 °F 96% 29.97 in 0.5 mi ENE 5.8 mph - 0.05 in Rain Rain
7:55 AM 57.6 °F 56.3 °F 96% 29.97 in 0.8 mi NE 4.6 mph - 0.06 in Rain Light Rain
8:15 AM 57.6 °F 56.3 °F 96% 29.96 in 1.2 mi NE 4.6 mph - N/A Rain Rain
8:35 AM 57.6 °F 56.3 °F 96% 29.93 in 0.8 mi ENE 11.5 mph - 0.01 in   Drizzle
8:55 AM 57.4 °F 56.3 °F 96% 29.96 in 1.5 mi ENE 9.2 mph - 0.01 in   Light Drizzle
9:15 AM 57.4 °F 56.3 °F 96% 29.93 in 1.5 mi ENE 13.8 mph - 0.01 in Rain Light Rain
9:55 AM 56.8 °F 55.6 °F 96% 29.95 in 2.5 mi NE 8.1 mph - 0.01 in   Overcast
10:15 AM 56.7 °F 55.6 °F 96% 29.95 in 4.0 mi East 10.4 mph - 0.01 in Rain Rain
10:35 AM 57.0 °F 55.6 °F 95% 29.95 in 4.0 mi East 5.8 mph - 0.01 in Rain Light Rain
10:55 AM 57.2 °F 56.1 °F 96% 29.96 in 3.0 mi East 8.1 mph - 0.02 in   Overcast
11:15 AM 57.9 °F 56.7 °F 96% 29.97 in 2.5 mi ESE 5.8 mph - N/A   Overcast
11:35 AM 58.1 °F 56.8 °F 96% 30.00 in 2.5 mi East 3.5 mph - N/A   Overcast
11:55 AM 58.1 °F 56.8 °F 96% 30.00 in 2.0 mi ENE 4.6 mph - N/A Rain Rain
12:15 PM 58.3 °F 57.2 °F 96% 30.00 in 1.5 mi ENE 4.6 mph - N/A Rain Light Rain
12:35 PM 58.3 °F 57.2 °F 96% 30.00 in 0.8 mi ENE 6.9 mph - N/A   Light Drizzle
12:55 PM 58.3 °F 57.2 °F 96% 30.00 in 0.5 mi NE 5.8 mph - N/A Rain Light Rain
1:15 PM 58.3 °F 57.2 °F 96% 30.02 in 0.5 mi Calm Calm - N/A Fog Fog
1:35 PM 58.6 °F 57.4 °F 96% 29.99 in 1.0 mi ENE 6.9 mph - N/A   Overcast
1:55 PM 59.0 °F 57.6 °F 95% 29.97 in 1.5 mi East 9.2 mph - N/A   Overcast
2:15 PM 59.4 °F 58.1 °F 96% 29.96 in 2.5 mi ENE 10.4 mph - N/A   Overcast
2:35 PM 59.2 °F 58.1 °F 96% 29.97 in 3.0 mi NE 11.5 mph - N/A   Overcast
2:55 PM 59.9 °F 58.5 °F 95% 29.95 in 3.0 mi ENE 13.8 mph - N/A   Overcast
3:15 PM 59.9 °F 58.6 °F 96% 29.95 in 2.0 mi ENE 13.8 mph 17.3 mph N/A   Overcast
3:35 PM 59.7 °F 58.5 °F 96% 29.95 in 1.5 mi ENE 11.5 mph 17.3 mph N/A   Overcast
3:55 PM 60.1 °F 59.0 °F 96% 29.95 in 1.5 mi ENE 10.4 mph - N/A   Overcast
4:15 PM 60.3 °F 59.0 °F 96% 29.95 in 1.5 mi ENE 11.5 mph - N/A   Overcast
4:35 PM 60.1 °F 59.0 °F 96% 29.95 in 1.2 mi ENE 8.1 mph - N/A   Overcast
4:55 PM 60.1 °F 58.8 °F 96% 29.96 in 0.5 mi ENE 6.9 mph - N/A Fog Fog
5:15 PM 59.9 °F 58.5 °F 95% 29.95 in 0.2 mi NE 8.1 mph - N/A Fog Fog
5:35 PM 59.4 °F 58.1 °F 96% 29.95 in 0.2 mi ENE 9.2 mph - N/A Fog Fog
5:55 PM 59.0 °F 57.9 °F 96% 29.95 in 0.2 mi ENE 9.2 mph - N/A Fog Fog
6:15 PM 59.0 °F 57.7 °F 96% 29.96 in 0.2 mi NE 6.9 mph - N/A Fog Fog
6:35 PM 59.0 °F 57.7 °F 96% 29.97 in 0.2 mi ENE 6.9 mph - N/A Fog Fog
6:55 PM 59.2 °F 57.9 °F 96% 29.97 in 0.2 mi ENE 9.2 mph - N/A Fog Fog
7:15 PM 59.2 °F 58.1 °F 96% 29.98 in 0.2 mi ENE 6.9 mph - N/A Fog Fog
7:35 PM 59.4 °F 58.1 °F 96% 29.97 in 0.2 mi ENE 8.1 mph - N/A Fog Fog
7:55 PM 59.5 °F 58.3 °F 96% 29.97 in 0.2 mi ENE 9.2 mph - N/A Fog Fog
8:15 PM 59.5 °F 58.3 °F 96% 29.97 in 0.2 mi ENE 11.5 mph - N/A Fog Fog
8:35 PM 59.5 °F 58.3 °F 96% 29.96 in 0.2 mi ENE 12.7 mph - N/A Fog Fog
8:55 PM 59.5 °F 58.3 °F 96% 29.95 in 0.2 mi East 13.8 mph - N/A Fog Fog
9:15 PM 59.4 °F 58.1 °F 96% 29.96 in 0.2 mi East 11.5 mph - N/A Fog Fog
9:35 PM 59.5 °F 58.3 °F 96% 29.97 in 0.2 mi East 10.4 mph - N/A Fog Fog
9:55 PM 59.4 °F 58.1 °F 96% 29.97 in 0.2 mi East 10.4 mph 16.1 mph N/A Fog Fog
10:15 PM 59.4 °F 58.1 °F 96% 29.96 in 0.2 mi ENE 12.7 mph - N/A Fog Fog
10:35 PM 59.4 °F 58.1 °F 96% 29.96 in 0.2 mi ENE 12.7 mph 18.4 mph N/A Fog Fog
10:55 PM 59.4 °F 58.1 °F 96% 29.97 in 0.2 mi East 9.2 mph - N/A Fog Fog
11:15 PM 59.4 °F 58.1 °F 96% 29.97 in 0.2 mi East 8.1 mph 16.1 mph N/A Fog Fog
11:35 PM 59.4 °F 58.1 °F 96% 29.96 in 0.2 mi East 10.4 mph - N/A Fog , Thunderstorm Fog
11:55 PM 59.2 °F 58.1 °F 96% 29.95 in 0.2 mi East 11.5 mph 20.7 mph N/A Fog Fog